RH
47 51 49 46 44 43 43 45 47 48 48 47 47 46 47 49 50 48 43 36 36 38 39 47 51 56 54 57 60 54 49 44 46 48 43 42 41 45 42 40 43 43 58
49 49 53 50 52 49 41 45 57 61 55 52 50 50 50 51 48 46 48 45 48 50 51 52 51 54 55 51 58 60 57 46 52 52 42 46 44 42 42 41 43 46 58
56 50 50 54 52 50 44 44 50 55 55 54 56 57 55 53 51 52 48 48 53 56 52 58 62 62 60 59 68 68 68 54 55 53 48 50 45 47 45 43 45 45 51
54 51 51 54 58 59 57 55 58 61 61 60 55 57 56 57 55 53 51 48 49 54 61 64 65 71 76 82 72 68 64 59 55 53 50 50 49 49 52 49 51 50 62
63 64 58 57 64 69 66 62 64 61 66 69 63 59 58 57 58 56 53 51 49 47 49 63 74 74 75 83 85 80 73 66 60 60 50 51 55 52 52 51 52 49 61
59 58 63 67 62 61 63 56 52 55 57 52 54 58 56 53 51 42 41 42 41 38 39 46 57 67 71 69 71 68 69 78 58 61 45 51 54 51 56 52 52 50 64
71 68 61 58 57 56 58 56 51 50 46 41 39 35 34 34 34 31 30 30 30 32 30 32 41 57 67 77 63 59 65 69 57 59 43 46 51 49 52 52 51 48 60
63 61 59 56 58 56 53 54 49 47 44 42 39 37 37 38 38 37 35 34 28 31 31 28 32 43 60 75 65 56 61 65 55 54 46 43 48 46 48 54 50 46 50
67 61 56 50 50 52 54 54 53 49 47 43 40 41 42 41 41 39 38 37 31 28 30 30 30 34 44 68 73 57 59 69 60 50 54 43 47 43 46 55 50 48 48
61 56 56 54 54 52 52 51 46 45 51 50 51 47 45 45 47 44 41 37 29 25 26 31 33 35 39 54 73 68 64 68 67 50 51 47 47 44 45 53 53 54 50
54 52 49 46 44 41 38 39 39 41 39 37 35 32 34 34 33 31 28 25 21 23 23 23 24 33 37 41 59 73 68 72 74 56 49 48 47 46 44 48 52 55 51
39 36 34 33 32 32 29 27 26 27 27 26 25 24 25 23 22 22 19 17 16 15 13 17 22 28 37 40 51 61 74 82 78 61 50 49 52 54 47 49 52 50 55
25 23 21 19 19 18 18 17 20 19 19 18 19 19 19 21 24 25 25 25 20 18 15 18 22 33 42 44 48 60 61 81 80 71 50 48 53 55 55 52 53 47 52
22 22 22 21 21 21 22 23 26 25 24 23 22 23 24 25 26 28 33 37 40 29 25 25 26 31 36 44 47 48 63 68 75 74 54 48 55 59 60 53 55 52 50
24 26 27 31 32 32 33 34 34 32 33 32 31 33 32 32 34 34 33 34 34 32 26 23 21 32 41 43 45 48 52 65 72 79 58 54 56 57 62 56 56 57 56
32 34 36 35 36 36 37 39 41 40 38 35 33 33 33 32 28 24 24 25 28 25 23 26 24 27 40 44 55 55 62 58 67 81 66 60 56 56 60 62 58 55 58
40 40 38 38 38 42 45 45 44 46 48 49 43 41 38 35 31 29 23 22 24 25 26 28 29 27 34 48 56 53 53 71 89 82 67 62 57 55 58 63 62 59 56
38 38 41 42 44 45 49 51 54 57 59 58 61 56 52 51 49 43 37 32 30 30 30 30 29 29 27 53 58 57 71 79 74 75 66 69 58 56 57 60 63 61 63
41 43 47 50 50 50 52 54 57 59 60 64 66 65 62 57 51 47 41 33 33 36 38 41 35 31 28 34 62 74 80 76 74 74 68 61 60 60 56 60 64 63 64
45 54 58 59 61 58 58 57 56 57 59 65 68 72 78 81 77 69 52 42 38 38 39 39 44 46 35 29 26 51 91 84 75 75 74 70 63 59 54 58 63 66 65
53 58 61 64 67 66 63 60 58 60 63 64 66 73 76 76 82 76 82 65 54 56 71 47 46 48 47 42 36 35 62 77 76 78 74 75 69 63 54 57 62 66 67
58 62 67 69 67 65 61 59 58 59 62 65 70 77 83 87 83 82 78 82 60 59 58 50 49 47 49 46 41 42 44 55 79 84 77 76 74 70 64 56 61 66 68
64 67 75 75 76 77 76 75 73 74 73 72 73 72 77 86 90 93 87 77 80 58 53 51 51 48 47 47 51 54 53 55 70 85 83 80 78 67 68 59 63 68 75
68 76 82 79 79 79 78 78 77 76 77 77 80 81 74 70 83 94 93 92 88 72 62 57 55 51 51 53 52 54 56 59 65 70 80 78 80 68 70 65 66 78 81
70 77 83 86 86 82 79 80 77 75 69 72 79 86 86 82 80 82 89 90 84 79 70 60 60 58 57 57 55 58 55 61 66 76 78 82 84 83 81 70 66 72 72
65 71 76 78 81 82 81 80 80 78 80 84 84 86 88 90 93 91 89 79 76 71 71 68 64 63 74 73 78 68 66 63 78 93 88 83 77 75 69 68 70 76 78